| time (UTC) | temp F | wind direction | speed MPH | gust MPH | rain 1hr in | rain 24hr in | rain mn in | humidity % | barometer mb |
| 20260903034601 | 77 | 0 | 0.0 | 0.0 | 0.00 | 0.00 | 0.00 | 92 | 1017.0 |
| 20260903033057 | 77 | 0 | 0.0 | 0.0 | 0.00 | 0.00 | 0.00 | 92 | 1017.1 |
| 20260903031622 | 77 | 0 | 0.0 | 0.0 | 0.00 | 0.00 | 0.00 | 92 | 1016.9 |
| 20260903024556 | 78 | 0 | 0.0 | 0.0 | 0.00 | 0.00 | 0.00 | 91 | 1017.0 |
| 20260903023107 | 78 | 0 | 0.0 | 0.0 | 0.00 | 0.00 | 0.00 | 91 | 1017.1 |
| 20260903021549 | 79 | 0 | 0.0 | 0.0 | 0.00 | 0.00 | 0.00 | 91 | 1017.1 |
| 20260903020100 | 79 | 0 | 0.0 | 0.0 | 0.00 | 0.00 | 0.00 | 89 | 1016.9 |
| 20260903014558 | 79 | 0 | 0.0 | 0.0 | 0.00 | 0.00 | 0.00 | 88 | 1016.7 |
| 20260903013055 | 80 | 0 | 0.0 | 0.0 | 0.00 | 0.00 | 0.00 | 88 | 1016.6 |
| 20260903011601 | 81 | 0 | 0.0 | 0.0 | 0.00 | 0.00 | 0.00 | 87 | 1016.5 |
| 20260903004553 | 82 | 0 | 0.0 | 0.0 | 0.00 | 0.00 | 0.00 | 84 | 1016.5 |
| 20260903003100 | 83 | 0 | 0.0 | 0.0 | 0.00 | 0.00 | 0.00 | 82 | 1016.7 |
| 20260903001549 | 84 | 0 | 0.0 | 0.0 | 0.00 | 0.00 | 0.00 | 82 | 1016.6 |
| 20260903000049 | 85 | 0 | 0.0 | 0.0 | 0.00 | 0.00 | 0.00 | 79 | 1016.6 |
| 20260902234559 | 86 | 0 | 0.0 | 0.0 | 0.00 | 0.00 | 0.00 | 77 | 1016.6 |
| 20260902233100 | 87 | 0 | 0.0 | 0.0 | 0.00 | 0.00 | 0.00 | 74 | 1016.7 |
| 20260902231602 | 88 | 0 | 0.0 | 0.0 | 0.00 | 0.00 | 0.00 | 74 | 1016.6 |
| 20260902230052 | 89 | 0 | 0.0 | 0.0 | 0.00 | 0.00 | 0.00 | 73 | 1016.7 |
| 20260902224600 | 90 | 0 | 0.0 | 0.0 | 0.00 | 0.00 | 0.00 | 67 | 1016.7 |
| 20260902223056 | 91 | 0 | 0.0 | 0.0 | 0.00 | 0.00 | 0.00 | 65 | 1016.8 |
| 20260902221554 | 91 | 0 | 0.0 | 0.0 | 0.00 | 0.00 | 0.00 | 63 | 1016.9 |
| 20260902220056 | 91 | 0 | 0.0 | 0.0 | 0.00 | 0.00 | 0.00 | 59 | 1017.0 |
| 20260902214600 | 92 | 0 | 0.0 | 0.0 | 0.00 | 0.00 | 0.00 | 60 | 1017.0 |
| 20260902213103 | 92 | 0 | 0.0 | 0.0 | 0.00 | 0.00 | 0.00 | 59 | 1017.0 |
| 20260902211551 | 92 | 0 | 0.0 | 1.0 | 0.00 | 0.00 | 0.00 | 57 | 1017.0 |
| 20260902210050 | 91 | 0 | 0.0 | 1.0 | 0.00 | 0.00 | 0.00 | 60 | 1017.0 |
| 20260902204601 | 91 | 49 | 0.0 | 1.0 | 0.00 | 0.00 | 0.00 | 66 | 1017.1 |
| 20260902203109 | 90 | 0 | 0.0 | 0.0 | 0.00 | 0.00 | 0.00 | 67 | 1017.3 |
| 20260902201554 | 92 | 0 | 0.0 | 1.0 | 0.00 | 0.00 | 0.00 | 59 | 1017.4 |
| 20260902200055 | 92 | 4 | 0.0 | 1.0 | 0.00 | 0.00 | 0.00 | 61 | 1017.8 |
| 20260902194559 | 93 | 0 | 0.0 | 1.0 | 0.00 | 0.00 | 0.00 | 58 | 1017.9 |
| 20260902193057 | 93 | 82 | 0.0 | 1.0 | 0.00 | 0.00 | 0.00 | 62 | 1018.1 |
| 20260902191554 | 93 | 53 | 1.0 | 2.0 | 0.00 | 0.00 | 0.00 | 62 | 1018.2 |
| 20260902190049 | 94 | 0 | 0.0 | 2.0 | 0.00 | 0.00 | 0.00 | 57 | 1018.3 |
| 20260902184558 | 94 | 38 | 0.0 | 2.0 | 0.00 | 0.00 | 0.00 | 58 | 1018.4 |
| 20260902183111 | 93 | 342 | 0.0 | 2.0 | 0.00 | 0.00 | 0.00 | 59 | 1018.6 |
| 20260902181553 | 92 | 0 | 0.0 | 2.0 | 0.00 | 0.00 | 0.00 | 60 | 1018.6 |
| 20260902174606 | 93 | 0 | 0.0 | 2.0 | 0.00 | 0.00 | 0.00 | 57 | 1018.9 |
| 20260902173053 | 92 | 277 | 0.0 | 2.0 | 0.00 | 0.00 | 0.00 | 59 | 1019.1 |
| 20260902171607 | 91 | 0 | 0.0 | 2.0 | 0.00 | 0.00 | 0.00 | 59 | 1019.3 |
| 20260902170053 | 90 | 0 | 0.0 | 1.0 | 0.00 | 0.00 | 0.00 | 62 | 1019.6 |
| 20260902164553 | 89 | 57 | 0.0 | 2.0 | 0.00 | 0.00 | 0.00 | 63 | 1019.9 |
| 20260902163130 | 89 | 137 | 0.0 | 2.0 | 0.00 | 0.00 | 0.00 | 66 | 1020.0 |
| 20260902161557 | 88 | 0 | 0.0 | 2.0 | 0.00 | 0.00 | 0.00 | 67 | 1020.1 |
| 20260902160055 | 87 | 56 | 0.0 | 2.0 | 0.00 | 0.00 | 0.00 | 71 | 1020.1 |
| 20260902154550 | 87 | 0 | 0.0 | 0.0 | 0.00 | 0.00 | 0.00 | 73 | 1020.2 |
| 20260902153104 | 86 | 0 | 0.0 | 0.0 | 0.00 | 0.00 | 0.00 | 73 | 1020.3 |
| 20260902151554 | 85 | 0 | 0.0 | 0.0 | 0.00 | 0.00 | 0.00 | 78 | 1020.3 |
| 20260902150052 | 84 | 0 | 0.0 | 0.0 | 0.00 | 0.00 | 0.00 | 77 | 1020.2 |
| 20260902144551 | 83 | 0 | 0.0 | 0.0 | 0.00 | 0.00 | 0.00 | 82 | 1020.2 |
| 20260902143102 | 81 | 0 | 0.0 | 0.0 | 0.00 | 0.00 | 0.00 | 85 | 1020.1 |
| 20260902141554 | 79 | 0 | 0.0 | 0.0 | 0.00 | 0.00 | 0.00 | 89 | 1020.1 |
| 20260902140052 | 77 | 0 | 0.0 | 0.0 | 0.00 | 0.00 | 0.00 | 92 | 1020.0 |
| 20260902134554 | 76 | 0 | 0.0 | 0.0 | 0.00 | 0.00 | 0.00 | 95 | 1019.9 |
| 20260902133107 | 74 | 0 | 0.0 | 0.0 | 0.00 | 0.00 | 0.00 | 97 | 1019.8 |
| 20260902131602 | 73 | 0 | 0.0 | 0.0 | 0.00 | 0.00 | 0.00 | 97 | 1019.8 |
| 20260902130051 | 72 | 0 | 0.0 | 0.0 | 0.00 | 0.00 | 0.00 | 96 | 1019.9 |
| 20260902124557 | 0 | 0.0 | 0.0 | 0.00 | 0.00 | 0.00 | 1019.9 | ||
| 20260902123115 | 0 | 0.0 | 0.0 | 0.00 | 0.00 | 0.00 | 1020.0 | ||
| 20260902121559 | 0 | 0.0 | 0.0 | 0.00 | 0.00 | 0.00 | 1019.8 |